Погода в Орске

Погода в Орске : погода сейчас, прогноз погоды и архив. Всё, что Вы хотите узнать о погоде в Орске!

Поиск расширенной информации на нашем сайте:

Другие новости

Новости СМИ2

Главная страница сайта

Новости сайта

02.10.2013

Напоминаем, что на нашем новом сайте вы можете получить высокодетализированные прогнозы погоды по пунктам России, СНГ и мира (включающие важные для авиации метеовеличины, такие как направление и скорость ветра, видимость, явления погоды, количество и форма облачности, нижняя и верхняя граница облачности), а также ознакомиться с разнообразными материалами по авиационной метеорологии и подборкой полезных ссылок на эту тему.

Сайт Метеоцентр.Азия посвящён разработке технологий оптимизации авиаметеорологического обслуживания, включая проектирование и перспективное создание нескольких автоматизированных авиаметеорологических систем:
- система выпуска высокодетальных прогностических карт явлений погоды для нижнего воздушного пространства по России и ближнему зарубежью;
- система верификации прогнозов TAF (выпускаемых синоптиками официальных АМСГ РФ и ближнего зарубежья) и AUTOTAF (выпускаемых сайтом Метеоцентр.Азия) - выявление ошибок, онлайн-сопоставление с фактической погодой METAR, автоматическое внесение коррективов в прогнозы при резком отклонении фактической погоды от прогноза, подсчёт оправдываемости прогнозов по элементам и в целом;
- система обработки, анализа и отображения авиаметеорологической информации для применения провайдерами метеорологической информации.


Погода в Орске - сегодня

Время (UTC), дата Ветер
(°,м/с) 
Видим.   Явления Облачность Т
(°С)
Тd
(°С)
f(%) Тe
(°С)
Pmin
(гПа)
dP
(гПа)
Po
(мм)
O2
(г/м3)
Тmin Tmax R s Состояние
почвы
00 18.01.17 040 (СВ) 10 км    3/0 средняя 
[Ac trans]
-22.7 -25.8 76 -23  1038  -0.6  749  331           
03 18.01.17 тихо ()   10 км    8/0 средняя, верхняя 
[Ac trans|Ci fib]
-22.8 -25.9 76 -23  1037.4  -0.5  749  331  -22.9         
06 18.01.17 тихо ()   10 км    8/0 средняя, верхняя 
[Ac trans|Ci fib]
-20.4 -23.3 78 -20  1036.9  0.1  748  328  -22.9         
09 18.01.17 070 (В) 10 км    8/0 средняя, верхняя 
[Ac trans|Ci fib]
-17.7 -20.7 77 -18  1035.2  -1.2  747  324           
12 18.01.17 270 (З) 10 км    8/0 верхняя 
[Ci fib]
-18.4 -21.3 78 -19  1034.7  -0.5  747  324           
15 18.01.17 280 (З) 10 км    8/0 верхняя 
[Ci fib]
-19 -21.7 79 -19  1033.8  -1  746  325    -17       
18 18.01.17 300 (СЗ) 10 км    6/0 средняя 
[Ac trans]
-19.5 -22.2 79 -20  1033.2  -0.6  746  325           
21 18.01.17 330 (СЗ) 4000 м  дымка  8/8 210 м 
[St]
-19.8 -22.6 78 -20  1031.7  -1.5  745  325           
00 19.01.17 200 (Ю) 4000 м  дымка  9/8 120 м верхняя 
[St|Ci fib]
-22 -24.9 77 -25  1031.1  -0.9  744  328           
03 19.01.17 320 (СЗ) 4000 м  дымка  9/8 150 м верхняя 
[St|Ci fib]
-20.9 -23.9 77 -21  1029.9  -1  743  326  -22.6      27  равномерный
сухой снег
100% 
06 19.01.17 190 (Ю) 10 км    6/0 средняя, верхняя 
[Ac trans|Ci fib]
-19 -21.8 78 -19  1029.4  -0.2  743  323           
09 19.01.17 280 (З) 10 км    8/0 верхняя 
[Ci fib]
-15.5 -18.3 79 -18  1027.4  -1.4  742  318           
12 19.01.17 280 (З) 10 км    5/0 верхняя 
[Ci fib]
-16.2 -19.2 78 -20  1027.2  -0.3  742  319           
15 19.01.17 260 (З) 10 км    4/0 верхняя 
[Ci fib]
-17.8 -20.8 77 -22  1026.4  -1  741  321    -13.8       
18 19.01.17 260 (З) 10 км    4/0 верхняя 
[Ci fib]
-18.9 -21.8 78 -24  1025.9  -0.6  741  322           
21 19.01.17 260 (З) 10 км    6/0 средняя, верхняя 
[Ac trans|Ci fib]
-19 -22 77 -25  1024.9  -0.9  740  322           
00 20.01.17 270 (З) 10 км    4/0 средняя, верхняя 
[Ac trans|Ci fib]
-20.5 -23.4 78 -26  1025.2  740  324           
03 20.01.17 270 (З) 2000 м  снег  10/10 180 м 
[Ns]
-17 -19.5 81 -22  1023.7  -0.9  739  319  -20.7    0.0  27  равномерный
сухой снег
100% 
06 20.01.17 240 (ЮЗ) 10 км  {снег}  4/0 средняя, верхняя 
[Ac trans|Ci fib]
-14.4 -17.1 80 -20  1022  -1.2  738  315           
09 20.01.17 240 (ЮЗ) 3{14}  10 км    8/8 500 м 
[Sc]
-12.9 -16.9 72 -16  1019.8  -2  737  313           
12 20.01.17 230 (ЮЗ) 12-14{15}  4000 м  слаб. снег  10/10 870 м 
[Sc]
-13.4 -16 81 -22  1017.2  -2.5  735  313           
15 20.01.17 240 (ЮЗ) 11-16{18}  4000 м  метель{снег}  10/8 210 м средняя 
[Frnb|As op]
-12.6 -14.9 83 -21  1014.6  -2.4  733  311    -12.3  0.0     
18 20.01.17 240 (ЮЗ) 12-18{17}  1500 м  метель  10/10 210 м 
[St]
-11.7 -13.8 84 -20  1011.8  -2.7  731  309           
21 20.01.17 240 (ЮЗ) 10-15{22}  0800 м  сильн. снег  10/10 120 м 
[Ns]
-11.4 -13.5 84 -19  1010.5  -1.1  730  308           
00 21.01.17 250 (З) 9-15{18}  1200 м  метель{снег}  10/10 180 м 
[St]
-10.7 -13 83 -18  1010.1  -0.4  730  307           
Время (UTC), дата Ветер
(°,м/с) 
Видим.   Явления Облачность Т
(°С)
Тd
(°С)
f(%) Тe
(°С)
Pmin
(гПа)
dP
(гПа)
Po
(мм)
O2
(г/м3)
Тmin Tmax R s Состояние
почвы

Для получения пояснительной информации подведите курсор к названию столбца.

ПОГОДА в Орске - архив

Всё, что Вы хотите узнать о погоде в Орске - удобно и подробно!

Выберите нужную дату (начиная с 1 января 2015* года) и нажмите кнопку "Найти".
Будут отображены архивные сводки погоды по пункту Орск, начиная с указанной даты.


Отображать данные в формате CSV (для использования в таблицах Excel)


Внимание! Наш архив погоды предназначен исключительно для личного некоммерческого использования в познавательных целях. Если Вам необходимы официальные справки о состоянии погоды (для производственных, юридических, коммерческих и т.п. целей), обращайтесь в органы Росгидромета.

*Примечание: данная дата относится к архиву по метеостанциям СССР (Россия, СНГ, Балтия).
Архив по метеостанциям Зарубежной Европы и Азии (кроме Китая) хранится 10 дней, по другим регионам земного шара (Китай, Африка, Америка, Австралия, Океания) - 1 день.

Орск - район местоположения метеостанции


Название, широта, долгота, высота метеостанции:
Орск 51.1°ш. 58.6°д. 285 м над ур. моря [Российская Федерация]

Дополнительная информация

В oтличие oт бoльшинства пoгoдных сайтoв мы публикуем пoдрoбную метеoинфoрмацию в детальнoм прoфессиoнальнoм фoрмате.

Характеристики температуры и влажнoсти вoздуха измеряются на высoте 2 м в тени вдали oт зданий и деревьев.
Скoрoсть ветра измеряется на высoте 10 м (на урoвне рoста челoвека скoрoсть ветра ниже в 1.5-2 раза). Если метеoстанция нахoдится в гoрoде или в лесу, тo скoрoсть ветра занижена на 2-4 м/с пo сравнению с oткрытым местoм. Скoрoсть ветра над акватoриями крупных рек и oзёр, а также на вершинах хoлмoв на 2-5 м/с выше, чем в oбычных услoвиях.
Атмoсфернoе давление в разных тoчках местнoсти мoжет значительнo oтличаться oт давления на метеoстанции, в зависимoсти oт услoвий рельефа (при пoдъёме на 10 м давление пoнижается примернo на 1 мм рт.ст.).